Погода в Борисовском

Россия / Тверская область     58°15′25″N   35°56′38″E
темп.,
°C
ветер,
м/с
пор.,
м/с
влажн.,
%
обл.,
%
осадки,
мм/ч
давл.,
гПа
погр.,
м
17 апреля, сб
сб1700:00+5всв413719 0.0 1027461
03:00+4всв4128067 0.0 1027388
06:00+4всв4127984 0.0 1028425
09:00+7всв59656 0.0 1028538
12:00+11всв58495 0.0 1028896
15:00+12всв58394 0.0 10271038
18:00+11всв49455 0.0 10261002
21:00+7св312675 0.0 1027346
18 апреля, вс
вс1800:00+5св412720 0.0 1027379
03:00+4св312800 0.0 1027338
06:00+3св312830 0.0 1028339
09:00+8всв510610 0.0 1027813
12:00+11всв69433 0.0 10271457
15:00+12в59415 0.0 10271733
18:00+10всв485263 0.0 10271393
21:00+7всв41267100 0.0 1028592
19 апреля, пн
пн1900:00+6всв4117885 0.0 1029486
03:00+4всв398673 0.0 1029382
06:00+3всв398894 0.0 1029397
09:00+6всв47689 0.0 1029722
12:00+9всв565135 0.0 10291277
15:00+9в464677 0.0 10281638
18:00+9всв464986 0.0 10281376
21:00+5всв3105747 0.0 1028326
20 апреля, вт
вт2000:00+4в3116967 0.0 1028423
03:00+3в31063100 0.0 1027449
06:00+2в3116724 0.0 1026449
09:00+4в595444 0.0 1025757
12:00+8в585156 0.0 10231348
15:00+9в5954100 0.0 10201476
18:00+8в51161100 0.0 10181315
21:00+8в61460100 0.0 10151199
21 апреля, ср
ср2100:00+6в71668100 0.3 10101134
03:00+4в71687100 3.1 10071207
06:00+3в61597100 4.9 1004963
09:00+5вюв61492100 7.7 1001982
12:00+6вюв61392100 1.3 10001211
15:00+8юв51391100 2.5 9981377
18:00+5юв61487100 0.8 9991429
21:00+3ю61296100 1.8 10001194